Satellite: HRBE Catalog number: 37855 Epoch time: 14352.54055501 Element set: 10 Inclination: 101.7081 deg RA of node: 112.0392 deg Eccentricity: 0.0206887 Arg of perigee: 240.4243 deg Mean anomaly: 117.6203 deg Mean motion: 14.93248525 rev/day Decay rate: 2.0599e-04 rev/day^2 Epoch rev: 17015 Checksum: 264
Satellite: RS-39 Catalog number: 38051 Epoch time: 14288.65876392 Element set: 41 Inclination: 051.5964 deg RA of node: 324.1908 deg Eccentricity: 0.0006422 Arg of perigee: 269.6897 deg Mean anomaly: 186.8903 deg Mean motion: 16.43533377 rev/day Decay rate: 7.0201582e-01 rev/day^2 Epoch rev: 15308 Checksum: 345
Satellite: E-STAR Catalog number: 38079 Epoch time: 14352.82048736 Element set: 109 Inclination: 069.4272 deg RA of node: 209.3602 deg Eccentricity: 0.0155614 Arg of perigee: 080.5609 deg Mean anomaly: 281.3130 deg Mean motion: 15.70521135 rev/day Decay rate: 4.47659e-03 rev/day^2 Epoch rev: 15169 Checksum: 304
Satellite: GOLIAT Catalog number: 38085 Epoch time: 14352.81050537 Element set: 640 Inclination: 069.4321 deg RA of node: 222.8907 deg Eccentricity: 0.0209021 Arg of perigee: 086.9956 deg Mean anomaly: 034.3311 deg Mean motion: 15.53475508 rev/day Decay rate: 2.81327e-03 rev/day^2 Epoch rev: 15134 Checksum: 291
Satellite: HORYU-2 Catalog number: 38340 Epoch time: 14352.33081835 Element set: 48 Inclination: 098.2890 deg RA of node: 312.9749 deg Eccentricity: 0.0011194 Arg of perigee: 317.0662 deg Mean anomaly: 042.9670 deg Mean motion: 14.73408208 rev/day Decay rate: 2.853e-05 rev/day^2 Epoch rev: 13889 Checksum: 311
Satellite: RS-40 Catalog number: 38735 Epoch time: 14352.67141013 Element set: 870 Inclination: 082.4748 deg RA of node: 172.5224 deg Eccentricity: 0.0016600 Arg of perigee: 213.0411 deg Mean anomaly: 146.9631 deg Mean motion: 12.42565269 rev/day Decay rate: 4.0e-07 rev/day^2 Epoch rev: 10849 Checksum: 273
Satellite: PROITERES Catalog number: 38756 Epoch time: 14352.89657576 Element set: 510 Inclination: 098.2244 deg RA of node: 084.2127 deg Eccentricity: 0.0012805 Arg of perigee: 149.8104 deg Mean anomaly: 210.3848 deg Mean motion: 14.75394250 rev/day Decay rate: 1.828e-05 rev/day^2 Epoch rev: 12241 Checksum: 302
Satellite: BEESAT-3 Catalog number: 39134 Epoch time: 14352.40324541 Element set: 798 Inclination: 064.8754 deg RA of node: 274.4028 deg Eccentricity: 0.0035659 Arg of perigee: 277.2476 deg Mean anomaly: 082.4593 deg Mean motion: 15.08517045 rev/day Decay rate: 1.6029e-04 rev/day^2 Epoch rev: 9139 Checksum: 324
Satellite: BEESAT-2 Catalog number: 39136 Epoch time: 14352.56116291 Element set: 775 Inclination: 064.8742 deg RA of node: 275.0854 deg Eccentricity: 0.0036039 Arg of perigee: 277.5864 deg Mean anomaly: 082.1660 deg Mean motion: 15.07465607 rev/day Decay rate: 1.3801e-04 rev/day^2 Epoch rev: 9140 Checksum: 310
Satellite: LO-75 Catalog number: 39382 Epoch time: 14295.69194059 Element set: 487 Inclination: 040.4713 deg RA of node: 030.2705 deg Eccentricity: 0.0002289 Arg of perigee: 341.7175 deg Mean anomaly: 018.4586 deg Mean motion: 16.19795749 rev/day Decay rate: 7.301741e-02 rev/day^2 Epoch rev: 47082 Checksum: 345
Satellite: ZACUBE-1 Catalog number: 39417 Epoch time: 14352.46774046 Element set: 492 Inclination: 097.7562 deg RA of node: 056.6282 deg Eccentricity: 0.0061342 Arg of perigee: 006.1695 deg Mean anomaly: 354.0258 deg Mean motion: 14.78908865 rev/day Decay rate: 3.163e-05 rev/day^2 Epoch rev: 5791 Checksum: 328
Satellite: TRITON-1 Catalog number: 39427 Epoch time: 14351.49447932 Element set: 342 Inclination: 097.7430 deg RA of node: 047.7486 deg Eccentricity: 0.0117417 Arg of perigee: 027.5084 deg Mean anomaly: 333.2269 deg Mean motion: 14.66017388 rev/day Decay rate: 2.490e-05 rev/day^2 Epoch rev: 5724 Checksum: 318
Satellite: DELFIN3XT Catalog number: 39428 Epoch time: 14352.34370231 Element set: 347 Inclination: 097.7425 deg RA of node: 047.2442 deg Eccentricity: 0.0126907 Arg of perigee: 028.3433 deg Mean anomaly: 332.4598 deg Mean motion: 14.64336412 rev/day Decay rate: 2.938e-05 rev/day^2 Epoch rev: 5727 Checksum: 305
Satellite: GOMX-1 Catalog number: 39430 Epoch time: 14352.69188749 Element set: 85 Inclination: 097.7368 deg RA of node: 043.6531 deg Eccentricity: 0.0155957 Arg of perigee: 038.3388 deg Mean anomaly: 322.8779 deg Mean motion: 14.57444689 rev/day Decay rate: 2.201e-05 rev/day^2 Epoch rev: 5708 Checksum: 351
Satellite: MO-76 Catalog number: 39436 Epoch time: 14352.19088870 Element set: 438 Inclination: 097.7625 deg RA of node: 063.4677 deg Eccentricity: 0.0022847 Arg of perigee: 358.2240 deg Mean anomaly: 001.8896 deg Mean motion: 14.96965368 rev/day Decay rate: 2.6222e-04 rev/day^2 Epoch rev: 5832 Checksum: 354
Satellite: LO-74 Catalog number: 39440 Epoch time: 14352.38367022 Element set: 339 Inclination: 097.7512 deg RA of node: 053.3939 deg Eccentricity: 0.0083218 Arg of perigee: 012.7141 deg Mean anomaly: 347.6140 deg Mean motion: 14.73791607 rev/day Decay rate: 1.732e-05 rev/day^2 Epoch rev: 5770 Checksum: 304
Satellite: PUCPSAT-1 Catalog number: 39442 Epoch time: 14352.46558541 Element set: 340 Inclination: 097.7629 deg RA of node: 061.5832 deg Eccentricity: 0.0033732 Arg of perigee: 001.7625 deg Mean anomaly: 358.3704 deg Mean motion: 14.87313642 rev/day Decay rate: 6.272e-05 rev/day^2 Epoch rev: 5699 Checksum: 311
Satellite: SHINAISAT Catalog number: 39572 Epoch time: 14328.13084988 Element set: 447 Inclination: 064.9728 deg RA of node: 197.0096 deg Eccentricity: 0.0013534 Arg of perigee: 259.7861 deg Mean anomaly: 100.1802 deg Mean motion: 16.45181032 rev/day Decay rate: 2.8848087e-01 rev/day^2 Epoch rev: 4240 Checksum: 324
Satellite: TEIKYOSAT Catalog number: 39576 Epoch time: 14297.85867254 Element set: 437 Inclination: 064.9818 deg RA of node: 300.5833 deg Eccentricity: 0.0008491 Arg of perigee: 317.3597 deg Mean anomaly: 044.3862 deg Mean motion: 16.45008906 rev/day Decay rate: 9.345816e-02 rev/day^2 Epoch rev: 3769 Checksum: 359
Satellite: CO-77 Catalog number: 39577 Epoch time: 14244.78324653 Element set: 379 Inclination: 064.9920 deg RA of node: 123.7668 deg Eccentricity: 0.0014904 Arg of perigee: 269.7208 deg Mean anomaly: 091.1897 deg Mean motion: 16.43552757 rev/day Decay rate: 1.0543803e-01 rev/day^2 Epoch rev: 2938 Checksum: 363
Satellite: SPROUT Catalog number: 39770 Epoch time: 14352.75973927 Element set: 227 Inclination: 097.8730 deg RA of node: 087.1489 deg Eccentricity: 0.0011191 Arg of perigee: 073.0352 deg Mean anomaly: 287.2105 deg Mean motion: 14.83202601 rev/day Decay rate: 2.841e-05 rev/day^2 Epoch rev: 3088 Checksum: 299
Satellite: POPSAT-HIP1 Catalog number: 40028 Epoch time: 14352.72761033 Element set: 559 Inclination: 097.9706 deg RA of node: 247.7045 deg Eccentricity: 0.0015899 Arg of perigee: 054.3660 deg Mean anomaly: 305.9094 deg Mean motion: 14.85991557 rev/day Decay rate: 4.725e-05 rev/day^2 Epoch rev: 2697 Checksum: 336
Satellite: EO-80 Catalog number: 40032 Epoch time: 14352.75645171 Element set: 542 Inclination: 097.9664 deg RA of node: 247.5766 deg Eccentricity: 0.0013403 Arg of perigee: 052.6555 deg Mean anomaly: 307.5898 deg Mean motion: 14.85731180 rev/day Decay rate: 4.284e-05 rev/day^2 Epoch rev: 2698 Checksum: 326
Satellite: VELOX-1 Catalog number: 40057 Epoch time: 14352.86875299 Element set: 550 Inclination: 098.2362 deg RA of node: 062.9903 deg Eccentricity: 0.0012714 Arg of perigee: 094.6153 deg Mean anomaly: 265.6535 deg Mean motion: 14.74839487 rev/day Decay rate: 4.177e-05 rev/day^2 Epoch rev: 2529 Checksum: 331
Satellite: DAURIA DX 1 Catalog number: 40071 Epoch time: 14352.83802684 Element set: 520 Inclination: 098.3828 deg RA of node: 051.6780 deg Eccentricity: 0.0009834 Arg of perigee: 097.1957 deg Mean anomaly: 263.0385 deg Mean motion: 14.79916677 rev/day Decay rate: 1.961e-05 rev/day^2 Epoch rev: 2411 Checksum: 318
Satellite: UKUBE-1 Catalog number: 40074 Epoch time: 14352.79421780 Element set: 521 Inclination: 098.3834 deg RA of node: 051.9198 deg Eccentricity: 0.0005889 Arg of perigee: 103.5758 deg Mean anomaly: 256.6147 deg Mean motion: 14.81201491 rev/day Decay rate: 4.066e-05 rev/day^2 Epoch rev: 2412 Checksum: 300
Satellite: CHASQUI-1 Catalog number: 40117 Epoch time: 14352.75390115 Element set: 369 Inclination: 051.6399 deg RA of node: 255.4573 deg Eccentricity: 0.0009768 Arg of perigee: 139.3532 deg Mean anomaly: 320.4197 deg Mean motion: 15.80595583 rev/day Decay rate: 3.77544e-03 rev/day^2 Epoch rev: 1905 Checksum: 325
Satellite: HODOYOSHI-1 Catalog number: 40299 Epoch time: 14352.79099689 Element set: 134 Inclination: 097.4726 deg RA of node: 071.6612 deg Eccentricity: 0.0014635 Arg of perigee: 045.9769 deg Mean anomaly: 071.7273 deg Mean motion: 15.17495158 rev/day Decay rate: 7.682e-05 rev/day^2 Epoch rev: 643 Checksum: 340
Satellite: CHUBUSAT-1 Catalog number: 40300 Epoch time: 14352.78460604 Element set: 136 Inclination: 097.4702 deg RA of node: 071.5078 deg Eccentricity: 0.0024409 Arg of perigee: 043.2772 deg Mean anomaly: 075.5763 deg Mean motion: 15.15414531 rev/day Decay rate: 8.957e-05 rev/day^2 Epoch rev: 642 Checksum: 282
Satellite: QSAT-EOS Catalog number: 40301 Epoch time: 14352.78875924 Element set: 145 Inclination: 097.4672 deg RA of node: 071.3352 deg Eccentricity: 0.0035793 Arg of perigee: 041.6344 deg Mean anomaly: 076.7199 deg Mean motion: 15.13104642 rev/day Decay rate: 1.5405e-04 rev/day^2 Epoch rev: 642 Checksum: 289
Satellite: TSUBAME Catalog number: 40302 Epoch time: 14352.96514657 Element set: 141 Inclination: 097.4646 deg RA of node: 071.3416 deg Eccentricity: 0.0045987 Arg of perigee: 041.2353 deg Mean anomaly: 319.2343 deg Mean motion: 15.10643410 rev/day Decay rate: 1.0525e-04 rev/day^2 Epoch rev: 643 Checksum: 265
/EX
participants (1)
-
Ray Hoad